IRIDIUM 134 (43075 NORAD) Tracking and Keplerian Element Data

This shows tracking and keplerian element data for the satellite.

Feedback or suggestion? Click here.




ElementValue
Catalog43075
NameIRIDIUM 134
Epoch Orbit19584
Epoch Day262.12272023
Epoch Year2021
RAAN325.8762
Inclination86.3989
Eccentricity0.0002073
Argument of Perigee100.2774
Mean Anonmoly259.8656
Mean Motion14.3422018
Decay Rate8.6E-07
L11 43075U 17083F 21262.12272023 .00000086 00000-0 23718-4 0 9999
L22 43075 86.3989 325.8762 0002073 100.2774 259.8656 14.34220180195843

Live tracking and technical data element details for IRIDIUM 134 (NORAD 43075). IRIDIUM 134 can be tracked NOW for your location showing map with azimuth and elevation plus other details from your city location.

Track the satellite on the map from your city or location and see movement details for azimuth, elevation, latitude, longitude, range, height, and movement on the map or in text.







IsCatalogInMostPopularTable: catalog: 43075, numindb: 574
Update: records affected: 1



GetName: 43075 IRIDIUM 134

Hit Count: updated at: Sun, 26 Sep 2021 01:14:06 GMT